Location: Goettingen
(51.5300°N, 9.9433°E)
Time: 10:00:26
(UTC+01:00)

ISS - Pass Details

Date: 25 March 2023
Orbit: 414 x 423 km, 51.6° (Epoch: 20 March)

Event Time Altitude Azimuth Distance (km) Brightness Sun altitude
Rises 21:05:07 0° 283° (WNW) 2,359 1.2 -21.8°
Reaches altitude 10° 21:07:14 10° 279° (W) 1,494 -0.1 -22.0°
Enters shadow 21:09:41 42° 255° (WSW) 609 -2.7 -22.3°
